Location: Malvern Link
(52.1333°N, 2.3000°W)
Time: 06:14:43
(UTC+00:00)

Cosmos 1464 Rocket - Pass Details

Date: 18 September 2020
Orbit: 953 x 1000 km, 82.9° (Epoch: 21 October)

Event Time Altitude Azimuth Distance (km) Brightness Sun altitude
Rises 19:43:21 0° 184° (S) 3,617 6.8 -13.9°
Reaches altitude 10° 19:45:49 10° 183° (S) 2,677 6.1 -14.2°
Maximum altitude 19:51:56 81° 97° (E) 976 3.9 -15.1°
Drops below altitude 10° 19:58:08 10° 12° (NNE) 2,713 6.5 -16.0°
Sets 20:00:40 0° 11° (NNE) 3,670 7.2 -16.3°
